Find Kuiper-00140

NORAD ID: 65965 Int'l Des: 2025-228 Owner: KUIP Country: US Constellation: amazon-leo operational
LEOCIRCULAR

当前视图

正在加载3D地球...

About Kuiper-00140

Kuiper-00140 (NORAD 65965) is a amazon-leo constellation satellite launched Oct 14, 2025 by KUIP of US. It operates in LEO, CIRCULAR orbit with a mass of 490.00 kg.

即将过境

Passes for default location (London). Set your location on the main map for personalized predictions.

高度历史

Loading altitude history...

两行轨道根数

1 65965U 25228U 26263.56888509 .00002116 00000-0 30652-3 0 9997
2 65965 51.8995 203.8996 0001076 75.9376 284.1706 14.79933023 52295
Epoch: Sep 20, 2026 • Age: 21 hours

当前状态

高度 629.2 km
远地点 / 近地点 N/A
速度 7.55 km/s
星下点 17.12°N, 51.25°E
发射日期 Oct 14, 2025
运行时间 0.9 years
类型 internet

技术详情

分类 Payload
质量 490.00 kg
形状 ? Box + 2 pan
制造商 KUIP
平台类型 Kuiper
阶段状态 In Orbit
所有者/国家 KUIP/US

Most Searched